User: anonymous   Login
Location: Unspecified
(0.0000°N, 0.0000°E)
Time: 07:52:19
(UTC+00:00)
Language:

SRMSAT - Orbit

View from above orbital plane
View from above orbital plane
View from above satellite
View from above satellite

Ground track
Ground track

The orbit data is extracted from the following two-line orbital elements,

1 37841U 11058D   23088.10637699  .00000575  00000-0  17068-3 0  9992
2 37841  19.9733 334.1880 0011848 231.4357 279.6208 14.10861822591485
Epoch (UTC): 29 March 2023 02:33:10
Eccentricity: 0.0011848
inclination: 19.9733°
perigee height: 848 km
apogee height: 865 km
right ascension of ascending node: 334.1880°
argument of perigee: 231.4357°
revolutions per day: 14.10861822
mean anomaly at epoch: 279.6208°
orbit number at epoch: 59148

The dashed part of the orbit path shows where the satellite is in the earth's shadow,  

DLR